iso_date,epoch_date,Year,Hour,Min,DOY,POS_DOY,Lat,Lon,BP,Ts,Ta,has_bp,has_ts,has_ta,BuoyID,Buoy_Type,Buoy_Owner,Logistics,Hemisphere
2015-02-24T10:00:28Z,1424772029,2015,10,0,55.417,55.417,70.1988,-148.452,1014.4,-12.6,-999.0,yes,yes,no,300234062550760,IceBall,USIABP,BeaCON,North
2015-02-24T10:59:31Z,1424775571,2015,11,0,55.458,55.458,70.199,-148.4522,1015.1,-12.7,-999.0,yes,yes,no,300234062550760,IceBall,USIABP,BeaCON,North
2015-02-24T12:00:00Z,1424779200,2015,12,0,55.5,55.5,70.1988,-148.452,1015.4,-12.1,-999.0,yes,yes,no,300234062550760,IceBall,USIABP,BeaCON,North
2015-02-24T13:00:28Z,1424782829,2015,13,0,55.542,55.542,70.199,-148.452,1015.6,-11.5,-999.0,yes,yes,no,300234062550760,IceBall,USIABP,BeaCON,North
2015-02-24T13:59:31Z,1424786371,2015,14,0,55.583,55.583,70.199,-148.452,1016.0,-11.4,-999.0,yes,yes,no,300234062550760,IceBall,USIABP,BeaCON,North
2015-02-24T15:00:00Z,1424790000,2015,15,0,55.625,55.625,70.1988,-148.452,1016.2,-10.9,-999.0,yes,yes,no,300234062550760,IceBall,USIABP,BeaCON,North
2015-02-24T16:00:28Z,1424793629,2015,16,0,55.667,55.667,70.1988,-148.452,1016.6,-9.8,-999.0,yes,yes,no,300234062550760,IceBall,USIABP,BeaCON,North
2015-02-24T16:59:31Z,1424797171,2015,17,0,55.708,55.708,70.199,-148.452,1017.1,-8.8,-999.0,yes,yes,no,300234062550760,IceBall,USIABP,BeaCON,North
2015-02-24T18:00:00Z,1424800800,2015,18,0,55.75,55.75,70.199,-148.452,1017.6,-7.8,-999.0,yes,yes,no,300234062550760,IceBall,USIABP,BeaCON,North
2015-02-24T19:00:28Z,1424804429,2015,19,0,55.792,55.792,70.1988,-148.452,1018.3,-6.7,-999.0,yes,yes,no,300234062550760,IceBall,USIABP,BeaCON,North
2015-02-24T19:59:31Z,1424807971,2015,20,0,55.833,55.833,70.199,-148.452,1018.7,-5.7,-999.0,yes,yes,no,300234062550760,IceBall,USIABP,BeaCON,North
2015-02-24T21:00:00Z,1424811600,2015,21,0,55.875,55.875,70.199,-148.452,1019.0,-5.7,-999.0,yes,yes,no,300234062550760,IceBall,USIABP,BeaCON,North
2015-02-24T22:00:28Z,1424815229,2015,22,0,55.917,55.917,70.199,-148.452,1019.5,-5.7,-999.0,yes,yes,no,300234062550760,IceBall,USIABP,BeaCON,North
2015-02-24T22:59:31Z,1424818771,2015,23,0,55.958,55.958,70.199,-148.452,1019.4,-5.8,-999.0,yes,yes,no,300234062550760,IceBall,USIABP,BeaCON,North
2015-02-25T00:00:00Z,1424822400,2015,0,0,56.0,56.0,70.199,-148.452,1019.2,-6.4,-999.0,yes,yes,no,300234062550760,IceBall,USIABP,BeaCON,North
2015-02-25T01:00:28Z,1424826029,2015,1,0,56.042,56.042,70.6544,-149.7594,977.5,-4.5,-999.0,yes,yes,no,300234062550760,IceBall,USIABP,BeaCON,North
2015-02-25T01:59:31Z,1424829571,2015,2,0,56.083,56.041,70.6544,-149.7594,1020.4,-1.9,-999.0,yes,yes,no,300234062550760,IceBall,USIABP,BeaCON,North
2015-02-25T03:00:00Z,1424833200,2015,3,0,56.125,56.041,70.6544,-149.7594,1018.5,2.0,-999.0,yes,yes,no,300234062550760,IceBall,USIABP,BeaCON,North
2015-02-25T04:00:28Z,1424836829,2015,4,0,56.167,56.167,70.199,-148.452,1018.8,-5.6,-999.0,yes,yes,no,300234062550760,IceBall,USIABP,BeaCON,North
2015-02-25T04:59:31Z,1424840371,2015,5,0,56.208,56.208,70.1988,-148.452,1018.9,-7.3,-999.0,yes,yes,no,300234062550760,IceBall,USIABP,BeaCON,North
2015-02-25T06:00:00Z,1424844000,2015,6,0,56.25,56.25,70.1988,-148.4518,1018.7,-8.5,-999.0,yes,yes,no,300234062550760,IceBall,USIABP,BeaCON,North
2015-02-25T07:00:28Z,1424847629,2015,7,0,56.292,56.292,70.1988,-148.4518,1018.7,-9.9,-999.0,yes,yes,no,300234062550760,IceBall,USIABP,BeaCON,North
2015-02-25T07:59:31Z,1424851171,2015,8,0,56.333,56.333,70.199,-148.452,1019.2,-11.1,-999.0,yes,yes,no,300234062550760,IceBall,USIABP,BeaCON,North
2015-02-25T09:00:00Z,1424854800,2015,9,0,56.375,56.375,70.1988,-148.452,1020.3,-11.9,-999.0,yes,yes,no,300234062550760,IceBall,USIABP,BeaCON,North
2015-02-25T10:00:28Z,1424858429,2015,10,0,56.417,56.417,70.199,-148.452,1021.1,-12.6,-999.0,yes,yes,no,300234062550760,IceBall,USIABP,BeaCON,North
2015-02-25T10:59:31Z,1424861971,2015,11,0,56.458,56.458,70.1986,-148.4522,1022.1,-13.0,-999.0,yes,yes,no,300234062550760,IceBall,USIABP,BeaCON,North
2015-02-25T12:00:00Z,1424865600,2015,12,0,56.5,56.5,70.1988,-148.452,1022.8,-13.5,-999.0,yes,yes,no,300234062550760,IceBall,USIABP,BeaCON,North
2015-02-25T13:00:28Z,1424869229,2015,13,0,56.542,56.542,70.1988,-148.452,1023.2,-13.6,-999.0,yes,yes,no,300234062550760,IceBall,USIABP,BeaCON,North
2015-02-25T13:59:31Z,1424872771,2015,14,0,56.583,56.583,70.199,-148.452,1023.4,-14.1,-999.0,yes,yes,no,300234062550760,IceBall,USIABP,BeaCON,North
2015-02-25T15:00:00Z,1424876400,2015,15,0,56.625,56.625,70.199,-148.452,1023.2,-14.8,-999.0,yes,yes,no,300234062550760,IceBall,USIABP,BeaCON,North
2015-02-25T16:00:28Z,1424880029,2015,16,0,56.667,56.667,70.199,-148.452,1023.3,-15.3,-999.0,yes,yes,no,300234062550760,IceBall,USIABP,BeaCON,North
2015-02-25T16:59:31Z,1424883571,2015,17,0,56.708,56.664,70.199,-148.452,1023.0,-8.1,-999.0,yes,yes,no,300234062550760,IceBall,USIABP,BeaCON,North
2015-02-25T18:00:00Z,1424887200,2015,18,0,56.75,56.665,70.199,-148.452,980.2,-2.8,-999.0,yes,yes,no,300234062550760,IceBall,USIABP,BeaCON,North
2015-02-25T19:00:28Z,1424890829,2015,19,0,56.792,56.792,70.4012,-145.4144,1025.7,-1.3,-999.0,yes,yes,no,300234062550760,IceBall,USIABP,BeaCON,North
2015-02-25T19:59:31Z,1424894371,2015,20,0,56.833,56.833,70.3634,-145.5846,1025.5,-6.9,-999.0,yes,yes,no,300234062550760,IceBall,USIABP,BeaCON,North
2015-02-25T21:00:00Z,1424898000,2015,21,0,56.875,56.875,70.3644,-145.5826,1025.9,-8.4,-999.0,yes,yes,no,300234062550760,IceBall,USIABP,BeaCON,North
2015-02-25T22:00:28Z,1424901629,2015,22,0,56.917,56.917,70.3654,-145.5804,1025.9,-8.7,-999.0,yes,yes,no,300234062550760,IceBall,USIABP,BeaCON,North
2015-02-25T22:59:31Z,1424905171,2015,23,0,56.958,56.958,70.3662,-145.5766,1025.7,-8.7,-999.0,yes,yes,no,300234062550760,IceBall,USIABP,BeaCON,North
2015-02-26T00:00:00Z,1424908800,2015,0,0,57.0,57.0,70.3672,-145.5716,1025.3,-8.6,-999.0,yes,yes,no,300234062550760,IceBall,USIABP,BeaCON,North
2015-02-26T01:00:28Z,1424912429,2015,1,0,57.042,57.042,70.368,-145.5646,1024.4,-8.6,-999.0,yes,yes,no,300234062550760,IceBall,USIABP,BeaCON,North
2015-02-26T01:59:31Z,1424915971,2015,2,0,57.083,57.083,70.3684,-145.5578,1024.0,-8.7,-999.0,yes,yes,no,300234062550760,IceBall,USIABP,BeaCON,North
2015-02-26T03:00:00Z,1424919600,2015,3,0,57.125,57.125,70.3692,-145.5528,1023.9,-8.8,-999.0,yes,yes,no,300234062550760,IceBall,USIABP,BeaCON,North
2015-02-26T04:00:28Z,1424923229,2015,4,0,57.167,57.167,70.37,-145.5488,1023.9,-9.1,-999.0,yes,yes,no,300234062550760,IceBall,USIABP,BeaCON,North
2015-02-26T04:59:31Z,1424926771,2015,5,0,57.208,57.208,70.3708,-145.5458,1023.6,-9.3,-999.0,yes,yes,no,300234062550760,IceBall,USIABP,BeaCON,North
2015-02-26T06:00:00Z,1424930400,2015,6,0,57.25,57.25,70.3718,-145.5438,1023.2,-9.6,-999.0,yes,yes,no,300234062550760,IceBall,USIABP,BeaCON,North
2015-02-26T07:00:28Z,1424934029,2015,7,0,57.292,57.292,70.3726,-145.542,1022.6,-9.8,-999.0,yes,yes,no,300234062550760,IceBall,USIABP,BeaCON,North
2015-02-26T07:59:31Z,1424937571,2015,8,0,57.333,57.333,70.3736,-145.539,1022.1,-9.9,-999.0,yes,yes,no,300234062550760,IceBall,USIABP,BeaCON,North
2015-02-26T09:00:00Z,1424941200,2015,9,0,57.375,57.375,70.3742,-145.5344,1021.8,-10.3,-999.0,yes,yes,no,300234062550760,IceBall,USIABP,BeaCON,North
2015-02-26T10:00:28Z,1424944829,2015,10,0,57.417,57.417,70.3748,-145.5304,1021.4,-10.6,-999.0,yes,yes,no,300234062550760,IceBall,USIABP,BeaCON,North
2015-02-26T10:59:31Z,1424948371,2015,11,0,57.458,57.458,70.3756,-145.5268,1021.1,-10.7,-999.0,yes,yes,no,300234062550760,IceBall,USIABP,BeaCON,North
2015-02-26T12:00:00Z,1424952000,2015,12,0,57.5,57.5,70.3762,-145.5214,1020.5,-10.5,-999.0,yes,yes,no,300234062550760,IceBall,USIABP,BeaCON,North
2015-02-26T13:00:28Z,1424955629,2015,13,0,57.542,57.542,70.3768,-145.5136,1020.0,-10.3,-999.0,yes,yes,no,300234062550760,IceBall,USIABP,BeaCON,North
2015-02-26T13:59:31Z,1424959171,2015,14,0,57.583,57.583,70.377,-145.5026,1019.4,-10.1,-999.0,yes,yes,no,300234062550760,IceBall,USIABP,BeaCON,North
2015-02-26T15:00:00Z,1424962800,2015,15,0,57.625,57.625,70.377,-145.4906,1018.8,-9.8,-999.0,yes,yes,no,300234062550760,IceBall,USIABP,BeaCON,North
2015-02-26T16:00:28Z,1424966429,2015,16,0,57.667,57.667,70.377,-145.4786,1018.0,-9.6,-999.0,yes,yes,no,300234062550760,IceBall,USIABP,BeaCON,North
2015-02-26T16:59:31Z,1424969971,2015,17,0,57.708,57.708,70.3772,-145.4638,1017.6,-9.3,-999.0,yes,yes,no,300234062550760,IceBall,USIABP,BeaCON,North
2015-02-26T18:00:00Z,1424973600,2015,18,0,57.75,57.75,70.3774,-145.4458,1017.2,-9.0,-999.0,yes,yes,no,300234062550760,IceBall,USIABP,BeaCON,North
2015-02-26T19:00:28Z,1424977229,2015,19,0,57.792,57.792,70.3776,-145.4266,1016.7,-8.8,-999.0,yes,yes,no,300234062550760,IceBall,USIABP,BeaCON,North
2015-02-26T19:59:31Z,1424980771,2015,20,0,57.833,57.833,70.3776,-145.405,1016.6,-8.3,-999.0,yes,yes,no,300234062550760,IceBall,USIABP,BeaCON,North
2015-02-26T21:00:00Z,1424984400,2015,21,0,57.875,57.875,70.3772,-145.3812,1016.5,-8.0,-999.0,yes,yes,no,300234062550760,IceBall,USIABP,BeaCON,North
2015-02-26T22:00:28Z,1424988029,2015,22,0,57.917,57.917,70.3768,-145.3558,1016.5,-7.8,-999.0,yes,yes,no,300234062550760,IceBall,USIABP,BeaCON,North
2015-02-26T22:59:31Z,1424991571,2015,23,0,57.958,57.958,70.376,-145.3272,1016.5,-7.6,-999.0,yes,yes,no,300234062550760,IceBall,USIABP,BeaCON,North
2015-02-27T00:00:00Z,1424995200,2015,0,0,58.0,58.0,70.3754,-145.2976,1016.5,-7.4,-999.0,yes,yes,no,300234062550760,IceBall,USIABP,BeaCON,North
2015-02-27T01:00:28Z,1424998829,2015,1,0,58.042,58.042,70.3744,-145.266,1016.9,-7.3,-999.0,yes,yes,no,300234062550760,IceBall,USIABP,BeaCON,North
2015-02-27T01:59:31Z,1425002371,2015,2,0,58.083,58.083,70.373,-145.2348,1016.5,-7.2,-999.0,yes,yes,no,300234062550760,IceBall,USIABP,BeaCON,North
2015-02-27T03:00:00Z,1425006000,2015,3,0,58.125,58.125,70.3716,-145.2054,1016.5,-7.1,-999.0,yes,yes,no,300234062550760,IceBall,USIABP,BeaCON,North
2015-02-27T04:00:28Z,1425009629,2015,4,0,58.167,58.167,70.3702,-145.179,1016.0,-7.0,-999.0,yes,yes,no,300234062550760,IceBall,USIABP,BeaCON,North
2015-02-27T04:59:31Z,1425013171,2015,5,0,58.208,58.208,70.369,-145.1564,1015.9,-6.9,-999.0,yes,yes,no,300234062550760,IceBall,USIABP,BeaCON,North
2015-02-27T06:00:00Z,1425016800,2015,6,0,58.25,58.25,70.368,-145.1378,1015.5,-6.9,-999.0,yes,yes,no,300234062550760,IceBall,USIABP,BeaCON,North
2015-02-27T07:00:28Z,1425020429,2015,7,0,58.292,58.292,70.367,-145.1216,1015.1,-6.8,-999.0,yes,yes,no,300234062550760,IceBall,USIABP,BeaCON,North
2015-02-27T07:59:31Z,1425023971,2015,8,0,58.333,58.333,70.3666,-145.1066,1015.3,-6.6,-999.0,yes,yes,no,300234062550760,IceBall,USIABP,BeaCON,North
2015-02-27T09:00:00Z,1425027600,2015,9,0,58.375,58.375,70.3666,-145.0902,1015.1,-6.6,-999.0,yes,yes,no,300234062550760,IceBall,USIABP,BeaCON,North
2015-02-27T10:00:28Z,1425031229,2015,10,0,58.417,58.417,70.3666,-145.07,1014.9,-6.4,-999.0,yes,yes,no,300234062550760,IceBall,USIABP,BeaCON,North
2015-02-27T10:59:31Z,1425034771,2015,11,0,58.458,58.458,70.3662,-145.0474,1014.8,-6.4,-999.0,yes,yes,no,300234062550760,IceBall,USIABP,BeaCON,North
2015-02-27T12:00:00Z,1425038400,2015,12,0,58.5,58.5,70.3656,-145.0224,1014.6,-6.3,-999.0,yes,yes,no,300234062550760,IceBall,USIABP,BeaCON,North
2015-02-27T13:00:28Z,1425042029,2015,13,0,58.542,58.542,70.365,-144.9962,1014.3,-6.2,-999.0,yes,yes,no,300234062550760,IceBall,USIABP,BeaCON,North
2015-02-27T13:59:31Z,1425045571,2015,14,0,58.583,58.583,70.3644,-144.9672,1014.1,-6.1,-999.0,yes,yes,no,300234062550760,IceBall,USIABP,BeaCON,North
2015-02-27T15:00:00Z,1425049200,2015,15,0,58.625,58.625,70.3636,-144.9352,1014.2,-5.9,-999.0,yes,yes,no,300234062550760,IceBall,USIABP,BeaCON,North
2015-02-27T16:00:28Z,1425052829,2015,16,0,58.667,58.667,70.3628,-144.9004,1014.9,-5.8,-999.0,yes,yes,no,300234062550760,IceBall,USIABP,BeaCON,North
2015-02-27T16:59:31Z,1425056371,2015,17,0,58.708,58.708,70.3612,-144.8638,1015.7,-5.7,-999.0,yes,yes,no,300234062550760,IceBall,USIABP,BeaCON,North
2015-02-27T18:00:00Z,1425060000,2015,18,0,58.75,58.75,70.359,-144.8294,1016.6,-5.5,-999.0,yes,yes,no,300234062550760,IceBall,USIABP,BeaCON,North
2015-02-27T19:00:28Z,1425063629,2015,19,0,58.792,58.792,70.3566,-144.7982,1017.6,-5.5,-999.0,yes,yes,no,300234062550760,IceBall,USIABP,BeaCON,North
2015-02-27T19:59:31Z,1425067171,2015,20,0,58.833,58.833,70.3548,-144.7704,1018.6,-5.5,-999.0,yes,yes,no,300234062550760,IceBall,USIABP,BeaCON,North
2015-02-27T21:00:00Z,1425070800,2015,21,0,58.875,58.875,70.3528,-144.745,1019.7,-5.5,-999.0,yes,yes,no,300234062550760,IceBall,USIABP,BeaCON,North
2015-02-27T22:00:28Z,1425074429,2015,22,0,58.917,58.917,70.3512,-144.7226,1020.0,-5.6,-999.0,yes,yes,no,300234062550760,IceBall,USIABP,BeaCON,North
2015-02-27T22:59:31Z,1425077971,2015,23,0,58.958,58.958,70.3504,-144.7016,1020.8,-5.7,-999.0,yes,yes,no,300234062550760,IceBall,USIABP,BeaCON,North
2015-02-28T00:00:00Z,1425081600,2015,0,0,59.0,59.0,70.3498,-144.6832,1021.5,-5.9,-999.0,yes,yes,no,300234062550760,IceBall,USIABP,BeaCON,North
2015-02-28T01:00:28Z,1425085229,2015,1,0,59.042,59.042,70.3496,-144.6672,1022.5,-6.2,-999.0,yes,yes,no,300234062550760,IceBall,USIABP,BeaCON,North
2015-02-28T01:59:31Z,1425088771,2015,2,0,59.083,59.083,70.3492,-144.6528,1022.9,-6.5,-999.0,yes,yes,no,300234062550760,IceBall,USIABP,BeaCON,North
2015-02-28T03:00:00Z,1425092400,2015,3,0,59.125,59.125,70.349,-144.6418,1023.2,-7.0,-999.0,yes,yes,no,300234062550760,IceBall,USIABP,BeaCON,North
2015-02-28T04:00:28Z,1425096029,2015,4,0,59.167,59.167,70.3488,-144.6322,1023.6,-7.5,-999.0,yes,yes,no,300234062550760,IceBall,USIABP,BeaCON,North
2015-02-28T04:59:31Z,1425099571,2015,5,0,59.208,59.208,70.3486,-144.625,1023.4,-8.1,-999.0,yes,yes,no,300234062550760,IceBall,USIABP,BeaCON,North
2015-02-28T06:00:00Z,1425103200,2015,6,0,59.25,59.25,70.3482,-144.6196,1022.6,-8.7,-999.0,yes,yes,no,300234062550760,IceBall,USIABP,BeaCON,North
2015-02-28T07:00:28Z,1425106829,2015,7,0,59.292,59.292,70.3482,-144.6166,1021.7,-9.4,-999.0,yes,yes,no,300234062550760,IceBall,USIABP,BeaCON,North
2015-02-28T07:59:31Z,1425110371,2015,8,0,59.333,59.333,70.3484,-144.6148,1021.1,-9.6,-999.0,yes,yes,no,300234062550760,IceBall,USIABP,BeaCON,North
2015-02-28T09:00:00Z,1425114000,2015,9,0,59.375,59.375,70.3488,-144.614,1019.6,-10.0,-999.0,yes,yes,no,300234062550760,IceBall,USIABP,BeaCON,North
2015-02-28T10:00:28Z,1425117629,2015,10,0,59.417,59.417,70.3494,-144.6132,1018.0,-10.3,-999.0,yes,yes,no,300234062550760,IceBall,USIABP,BeaCON,North
2015-02-28T10:59:31Z,1425121171,2015,11,0,59.458,59.458,70.3506,-144.6122,1016.4,-10.3,-999.0,yes,yes,no,300234062550760,IceBall,USIABP,BeaCON,North
2015-02-28T12:00:00Z,1425124800,2015,12,0,59.5,59.5,70.3518,-144.6118,1015.4,-10.3,-999.0,yes,yes,no,300234062550760,IceBall,USIABP,BeaCON,North
2015-02-28T13:00:28Z,1425128429,2015,13,0,59.542,59.542,70.353,-144.6126,1014.0,-10.3,-999.0,yes,yes,no,300234062550760,IceBall,USIABP,BeaCON,North
2015-02-28T13:59:31Z,1425131971,2015,14,0,59.583,59.583,70.354,-144.6136,1012.9,-10.2,-999.0,yes,yes,no,300234062550760,IceBall,USIABP,BeaCON,North
2015-02-28T15:00:00Z,1425135600,2015,15,0,59.625,59.625,70.3548,-144.615,1011.6,-10.2,-999.0,yes,yes,no,300234062550760,IceBall,USIABP,BeaCON,North
2015-02-28T16:00:28Z,1425139229,2015,16,0,59.667,59.667,70.3554,-144.6168,1011.0,-10.2,-999.0,yes,yes,no,300234062550760,IceBall,USIABP,BeaCON,North
2015-02-28T16:59:31Z,1425142771,2015,17,0,59.708,59.708,70.3562,-144.618,1009.8,-10.2,-999.0,yes,yes,no,300234062550760,IceBall,USIABP,BeaCON,North
2015-02-28T18:00:00Z,1425146400,2015,18,0,59.75,59.75,70.357,-144.6184,1008.6,-10.1,-999.0,yes,yes,no,300234062550760,IceBall,USIABP,BeaCON,North
2015-02-28T19:00:28Z,1425150029,2015,19,0,59.792,59.792,70.3574,-144.6132,1007.9,-9.8,-999.0,yes,yes,no,300234062550760,IceBall,USIABP,BeaCON,North
2015-02-28T19:59:31Z,1425153571,2015,20,0,59.833,59.833,70.3576,-144.6048,1007.4,-9.5,-999.0,yes,yes,no,300234062550760,IceBall,USIABP,BeaCON,North
2015-02-28T21:00:00Z,1425157200,2015,21,0,59.875,59.875,70.3572,-144.5986,1007.1,-9.2,-999.0,yes,yes,no,300234062550760,IceBall,USIABP,BeaCON,North
2015-02-28T22:00:28Z,1425160829,2015,22,0,59.917,59.917,70.3564,-144.597,1006.3,-9.0,-999.0,yes,yes,no,300234062550760,IceBall,USIABP,BeaCON,North
2015-02-28T22:59:31Z,1425164371,2015,23,0,59.958,59.958,70.3556,-144.5988,1005.2,-8.7,-999.0,yes,yes,no,300234062550760,IceBall,USIABP,BeaCON,North
2015-03-01T00:00:00Z,1425168000,2015,0,0,60.0,60.0,70.3548,-144.6024,1003.7,-8.6,-999.0,yes,yes,no,300234062550760,IceBall,USIABP,BeaCON,North
2015-03-01T01:00:28Z,1425171629,2015,1,0,60.042,60.042,70.3544,-144.6088,1003.0,-8.6,-999.0,yes,yes,no,300234062550760,IceBall,USIABP,BeaCON,North
2015-03-01T01:59:31Z,1425175171,2015,2,0,60.083,60.083,70.3544,-144.6164,1003.1,-8.5,-999.0,yes,yes,no,300234062550760,IceBall,USIABP,BeaCON,North
2015-03-01T03:00:00Z,1425178800,2015,3,0,60.125,60.125,70.3548,-144.6216,1003.6,-8.3,-999.0,yes,yes,no,300234062550760,IceBall,USIABP,BeaCON,North
2015-03-01T04:00:28Z,1425182429,2015,4,0,60.167,60.167,70.3554,-144.6192,1004.6,-8.0,-999.0,yes,yes,no,300234062550760,IceBall,USIABP,BeaCON,North
2015-03-01T04:59:31Z,1425185971,2015,5,0,60.208,60.208,70.3564,-144.5912,1008.2,-7.9,-999.0,yes,yes,no,300234062550760,IceBall,USIABP,BeaCON,North
2015-03-01T06:00:00Z,1425189600,2015,6,0,60.25,60.25,70.361,-144.5382,1011.3,-7.1,-999.0,yes,yes,no,300234062550760,IceBall,USIABP,BeaCON,North
2015-03-01T07:00:28Z,1425193229,2015,7,0,60.292,60.292,70.3644,-144.4574,1013.0,-7.1,-999.0,yes,yes,no,300234062550760,IceBall,USIABP,BeaCON,North
2015-03-01T07:59:31Z,1425196771,2015,8,0,60.333,60.333,70.365,-144.3546,1017.1,-7.4,-999.0,yes,yes,no,300234062550760,IceBall,USIABP,BeaCON,North
2015-03-01T09:00:00Z,1425200400,2015,9,0,60.375,60.375,70.3668,-144.2348,1020.5,-7.7,-999.0,yes,yes,no,300234062550760,IceBall,USIABP,BeaCON,North
2015-03-01T10:00:28Z,1425204029,2015,10,0,60.417,60.417,70.3682,-144.111,1023.7,-8.2,-999.0,yes,yes,no,300234062550760,IceBall,USIABP,BeaCON,North
2015-03-01T10:59:31Z,1425207571,2015,11,0,60.458,60.458,70.3688,-143.9988,1026.1,-8.7,-999.0,yes,yes,no,300234062550760,IceBall,USIABP,BeaCON,North
2015-03-01T12:00:00Z,1425211200,2015,12,0,60.5,60.5,70.3686,-143.8902,1027.8,-9.3,-999.0,yes,yes,no,300234062550760,IceBall,USIABP,BeaCON,North
2015-03-01T13:00:28Z,1425214829,2015,13,0,60.542,60.542,70.3678,-143.7942,1029.6,-10.0,-999.0,yes,yes,no,300234062550760,IceBall,USIABP,BeaCON,North
2015-03-01T13:59:31Z,1425218371,2015,14,0,60.583,60.583,70.3674,-143.7066,1030.3,-10.5,-999.0,yes,yes,no,300234062550760,IceBall,USIABP,BeaCON,North
2015-03-01T15:00:00Z,1425222000,2015,15,0,60.625,60.625,70.367,-143.6172,1032.1,-10.8,-999.0,yes,yes,no,300234062550760,IceBall,USIABP,BeaCON,North
2015-03-01T16:00:28Z,1425225629,2015,16,0,60.667,60.667,70.3654,-143.5258,1032.7,-11.4,-999.0,yes,yes,no,300234062550760,IceBall,USIABP,BeaCON,North
2015-03-01T16:59:31Z,1425229171,2015,17,0,60.708,60.708,70.3638,-143.4342,1034.2,-11.7,-999.0,yes,yes,no,300234062550760,IceBall,USIABP,BeaCON,North
2015-03-01T18:00:00Z,1425232800,2015,18,0,60.75,60.75,70.3606,-143.3406,1035.5,-12.1,-999.0,yes,yes,no,300234062550760,IceBall,USIABP,BeaCON,North
2015-03-01T19:00:28Z,1425236429,2015,19,0,60.792,60.792,70.3562,-143.2442,1036.9,-12.4,-999.0,yes,yes,no,300234062550760,IceBall,USIABP,BeaCON,North
2015-03-01T19:59:31Z,1425239971,2015,20,0,60.833,60.833,70.3502,-143.1464,1037.5,-12.6,-999.0,yes,yes,no,300234062550760,IceBall,USIABP,BeaCON,North
2015-03-01T21:00:00Z,1425243600,2015,21,0,60.875,60.875,70.3422,-143.0562,1038.7,-12.9,-999.0,yes,yes,no,300234062550760,IceBall,USIABP,BeaCON,North
2015-03-01T22:00:28Z,1425247229,2015,22,0,60.917,60.917,70.3316,-142.974,1039.5,-12.7,-999.0,yes,yes,no,300234062550760,IceBall,USIABP,BeaCON,North
2015-03-01T22:59:31Z,1425250771,2015,23,0,60.958,60.958,70.3202,-142.9,1039.9,-12.7,-999.0,yes,yes,no,300234062550760,IceBall,USIABP,BeaCON,North
2015-03-02T00:00:00Z,1425254400,2015,0,0,61.0,61.0,70.3084,-142.8336,1040.5,-12.8,-999.0,yes,yes,no,300234062550760,IceBall,USIABP,BeaCON,North
2015-03-02T01:00:28Z,1425258029,2015,1,0,61.042,61.042,70.2966,-142.7784,1040.7,-12.7,-999.0,yes,yes,no,300234062550760,IceBall,USIABP,BeaCON,North
2015-03-02T01:59:31Z,1425261571,2015,2,0,61.083,61.083,70.286,-142.7348,1041.4,-13.0,-999.0,yes,yes,no,300234062550760,IceBall,USIABP,BeaCON,North
2015-03-02T03:00:00Z,1425265200,2015,3,0,61.125,61.125,70.278,-142.7038,1041.3,-13.4,-999.0,yes,yes,no,300234062550760,IceBall,USIABP,BeaCON,North
2015-03-02T04:00:28Z,1425268829,2015,4,0,61.167,61.167,70.2736,-142.6864,1041.6,-13.7,-999.0,yes,yes,no,300234062550760,IceBall,USIABP,BeaCON,North
2015-03-02T04:59:31Z,1425272371,2015,5,0,61.208,61.208,70.2724,-142.6784,1041.6,-14.1,-999.0,yes,yes,no,300234062550760,IceBall,USIABP,BeaCON,North
2015-03-02T06:00:00Z,1425276000,2015,6,0,61.25,61.25,70.2724,-142.675,1041.9,-14.2,-999.0,yes,yes,no,300234062550760,IceBall,USIABP,BeaCON,North
2015-03-02T07:00:28Z,1425279629,2015,7,0,61.292,61.292,70.2728,-142.6692,1041.8,-14.3,-999.0,yes,yes,no,300234062550760,IceBall,USIABP,BeaCON,North
2015-03-02T07:59:31Z,1425283171,2015,8,0,61.333,61.333,70.2734,-142.6632,1041.7,-14.6,-999.0,yes,yes,no,300234062550760,IceBall,USIABP,BeaCON,North
2015-03-02T09:00:00Z,1425286800,2015,9,0,61.375,61.375,70.2738,-142.6558,1041.3,-15.1,-999.0,yes,yes,no,300234062550760,IceBall,USIABP,BeaCON,North
2015-03-02T10:00:28Z,1425290429,2015,10,0,61.417,61.417,70.2742,-142.6476,1040.4,-15.1,-999.0,yes,yes,no,300234062550760,IceBall,USIABP,BeaCON,North
2015-03-02T10:59:31Z,1425293971,2015,11,0,61.458,61.458,70.2744,-142.6404,1040.4,-15.3,-999.0,yes,yes,no,300234062550760,IceBall,USIABP,BeaCON,North
2015-03-02T12:00:00Z,1425297600,2015,12,0,61.5,61.5,70.2742,-142.6368,1039.4,-15.5,-999.0,yes,yes,no,300234062550760,IceBall,USIABP,BeaCON,North
2015-03-02T13:00:28Z,1425301229,2015,13,0,61.542,61.542,70.274,-142.637,1037.7,-15.7,-999.0,yes,yes,no,300234062550760,IceBall,USIABP,BeaCON,North
2015-03-02T13:59:31Z,1425304771,2015,14,0,61.583,61.583,70.2736,-142.638,1037.3,-15.9,-999.0,yes,yes,no,300234062550760,IceBall,USIABP,BeaCON,North
2015-03-02T15:00:00Z,1425308400,2015,15,0,61.625,61.625,70.273,-142.6402,1036.4,-15.8,-999.0,yes,yes,no,300234062550760,IceBall,USIABP,BeaCON,North
2015-03-02T16:00:28Z,1425312029,2015,16,0,61.667,61.667,70.2728,-142.644,1035.7,-15.7,-999.0,yes,yes,no,300234062550760,IceBall,USIABP,BeaCON,North
2015-03-02T16:59:31Z,1425315571,2015,17,0,61.708,61.708,70.2726,-142.65,1034.4,-15.4,-999.0,yes,yes,no,300234062550760,IceBall,USIABP,BeaCON,North
2015-03-02T18:00:00Z,1425319200,2015,18,0,61.75,61.75,70.273,-142.658,1033.7,-15.6,-999.0,yes,yes,no,300234062550760,IceBall,USIABP,BeaCON,North
2015-03-02T19:00:28Z,1425322829,2015,19,0,61.792,61.792,70.274,-142.6688,1032.3,-15.6,-999.0,yes,yes,no,300234062550760,IceBall,USIABP,BeaCON,North
2015-03-02T19:59:31Z,1425326371,2015,20,0,61.833,61.833,70.2764,-142.681,1031.9,-15.2,-999.0,yes,yes,no,300234062550760,IceBall,USIABP,BeaCON,North
2015-03-02T21:00:00Z,1425330000,2015,21,0,61.875,61.875,70.279,-142.6966,1030.4,-15.0,-999.0,yes,yes,no,300234062550760,IceBall,USIABP,BeaCON,North
2015-03-02T22:00:28Z,1425333629,2015,22,0,61.917,61.917,70.282,-142.7146,1029.4,-14.8,-999.0,yes,yes,no,300234062550760,IceBall,USIABP,BeaCON,North
2015-03-02T22:59:31Z,1425337171,2015,23,0,61.958,61.958,70.285,-142.7346,1028.3,-14.4,-999.0,yes,yes,no,300234062550760,IceBall,USIABP,BeaCON,North
2015-03-03T00:00:00Z,1425340800,2015,0,0,62.0,62.0,70.288,-142.7568,1027.8,-14.3,-999.0,yes,yes,no,300234062550760,IceBall,USIABP,BeaCON,North
2015-03-03T01:00:28Z,1425344429,2015,1,0,62.042,62.042,70.2908,-142.781,1026.9,-14.2,-999.0,yes,yes,no,300234062550760,IceBall,USIABP,BeaCON,North
2015-03-03T01:59:31Z,1425347971,2015,2,0,62.083,62.083,70.2934,-142.807,1026.2,-14.3,-999.0,yes,yes,no,300234062550760,IceBall,USIABP,BeaCON,North
2015-03-03T03:00:00Z,1425351600,2015,3,0,62.125,62.125,70.2964,-142.8354,1025.4,-14.6,-999.0,yes,yes,no,300234062550760,IceBall,USIABP,BeaCON,North